| time (UTC) | temp F | wind direction | speed knots | gust knots | rain 1hr in | rain 24hr in | rain mn in | humidity % | barometer mb |
| 20260906210012 | 84 | 139 | 13.0 | 23.5 | 0.00 | 0.07 | 0.00 | 45 | 1002.3 |
| 20260906204508 | 84 | 146 | 15.6 | 26.9 | 0.00 | 0.07 | 0.00 | 45 | 1002.6 |
| 20260906203005 | 83 | 117 | 13.0 | 20.9 | 0.00 | 0.07 | 0.00 | 45 | 1002.8 |
| 20260906201502 | 83 | 139 | 10.4 | 22.6 | 0.00 | 0.07 | 0.00 | 44 | 1002.7 |
| 20260906200058 | 83 | 169 | 11.3 | 21.7 | 0.00 | 0.07 | 0.00 | 47 | 1002.9 |
| 20260906194601 | 83 | 130 | 9.6 | 17.4 | 0.00 | 0.07 | 0.00 | 49 | 1003.0 |
| 20260906193053 | 82 | 178 | 12.2 | 17.4 | 0.00 | 0.07 | 0.00 | 48 | 1003.0 |
| 20260906191551 | 82 | 159 | 9.6 | 18.2 | 0.00 | 0.07 | 0.00 | 49 | 1003.2 |
| 20260906190049 | 81 | 150 | 11.3 | 21.7 | 0.00 | 0.07 | 0.00 | 51 | 1003.3 |
| 20260906184547 | 81 | 101 | 13.0 | 16.5 | 0.00 | 0.07 | 0.00 | 49 | 1003.5 |
| 20260906183054 | 80 | 167 | 10.4 | 15.6 | 0.00 | 0.07 | 0.00 | 51 | 1003.7 |
| 20260906181548 | 79 | 128 | 8.7 | 16.5 | 0.00 | 0.07 | 0.00 | 51 | 1004.0 |
| 20260906180041 | 79 | 131 | 7.8 | 13.0 | 0.00 | 0.07 | 0.00 | 53 | 1004.2 |
| 20260906174541 | 78 | 155 | 8.7 | 15.6 | 0.00 | 0.07 | 0.00 | 54 | 1004.3 |
| 20260906173036 | 78 | 130 | 8.7 | 13.9 | 0.00 | 0.07 | 0.00 | 55 | 1004.5 |
| 20260906171532 | 77 | 128 | 9.6 | 13.0 | 0.00 | 0.07 | 0.00 | 57 | 1004.7 |
| 20260906170031 | 76 | 88 | 9.6 | 13.0 | 0.00 | 0.07 | 0.00 | 59 | 1005.0 |
| 20260906164528 | 75 | 121 | 8.7 | 12.2 | 0.00 | 0.07 | 0.00 | 62 | 1005.1 |
| 20260906163040 | 75 | 131 | 7.0 | 9.6 | 0.00 | 0.07 | 0.00 | 63 | 1005.1 |
| 20260906161525 | 74 | 165 | 4.3 | 11.3 | 0.00 | 0.07 | 0.00 | 63 | 1005.1 |
| 20260906160019 | 73 | 181 | 7.0 | 10.4 | 0.00 | 0.07 | 0.00 | 66 | 1005.2 |
| 20260906154515 | 72 | 158 | 6.1 | 12.2 | 0.00 | 0.07 | 0.00 | 67 | 1005.1 |
| 20260906153012 | 72 | 145 | 7.0 | 14.8 | 0.00 | 0.07 | 0.00 | 69 | 1005.0 |
| 20260906151510 | 71 | 174 | 7.0 | 12.2 | 0.00 | 0.07 | 0.00 | 71 | 1005.1 |
| 20260906150008 | 70 | 154 | 7.0 | 9.6 | 0.00 | 0.07 | 0.00 | 72 | 1005.1 |
| 20260906144505 | 69 | 161 | 7.8 | 12.2 | 0.00 | 0.07 | 0.00 | 74 | 1005.0 |
| 20260906143001 | 69 | 150 | 6.1 | 10.4 | 0.00 | 0.07 | 0.00 | 75 | 1005.0 |
| 20260906141601 | 68 | 140 | 3.5 | 7.0 | 0.00 | 0.07 | 0.00 | 77 | 1005.2 |
| 20260906140100 | 66 | 118 | 1.7 | 3.5 | 0.00 | 0.07 | 0.00 | 81 | 1005.3 |
| 20260906134559 | 63 | 118 | 1.7 | 3.5 | 0.00 | 0.07 | 0.00 | 89 | 1005.1 |
| 20260906133054 | 61 | 118 | 0.0 | 1.7 | 0.00 | 0.07 | 0.00 | 89 | 1004.9 |
| 20260906131548 | 60 | 118 | 0.0 | 0.9 | 0.00 | 0.07 | 0.00 | 89 | 1004.7 |
| 20260906124547 | 59 | 118 | 3.5 | 7.8 | 0.00 | 0.07 | 0.00 | 88 | 1004.6 |
| 20260906123047 | 59 | 103 | 4.3 | 6.1 | 0.00 | 0.07 | 0.00 | 89 | 1004.5 |
| 20260906121549 | 59 | 106 | 6.1 | 7.0 | 0.00 | 0.07 | 0.00 | 88 | 1004.3 |
| 20260906120044 | 59 | 80 | 6.1 | 7.0 | 0.00 | 0.07 | 0.00 | 88 | 1004.3 |
| 20260906114542 | 59 | 80 | 3.5 | 4.3 | 0.00 | 0.07 | 0.00 | 88 | 1004.1 |
| 20260906113041 | 60 | 80 | 3.5 | 6.1 | 0.00 | 0.07 | 0.00 | 87 | 1004.0 |
| 20260906111543 | 59 | 80 | 4.3 | 5.2 | 0.00 | 0.07 | 0.00 | 88 | 1004.1 |
| 20260906110041 | 60 | 80 | 6.1 | 8.7 | 0.00 | 0.07 | 0.00 | 88 | 1004.3 |
| 20260906104539 | 60 | 70 | 5.2 | 11.3 | 0.00 | 0.07 | 0.00 | 89 | 1004.3 |
| 20260906103038 | 60 | 71 | 7.8 | 8.7 | 0.00 | 0.07 | 0.00 | 88 | 1004.3 |
| 20260906101538 | 60 | 69 | 8.7 | 10.4 | 0.00 | 0.07 | 0.00 | 90 | 1004.4 |
| 20260906100041 | 60 | 30 | 9.6 | 11.3 | 0.00 | 0.07 | 0.00 | 89 | 1004.5 |
| 20260906094535 | 60 | 43 | 10.4 | 13.0 | 0.00 | 0.07 | 0.00 | 88 | 1004.5 |
| 20260906093046 | 60 | 319 | 1.7 | 3.5 | 0.00 | 0.07 | 0.00 | 87 | 1004.0 |
| 20260906091531 | 60 | 319 | 1.7 | 4.3 | 0.00 | 0.07 | 0.00 | 87 | 1003.9 |
| 20260906090029 | 60 | 319 | 1.7 | 3.5 | 0.00 | 0.07 | 0.00 | 86 | 1003.9 |
| 20260906084528 | 61 | 319 | 4.3 | 7.8 | 0.00 | 0.07 | 0.00 | 85 | 1003.6 |
| 20260906083025 | 62 | 196 | 2.6 | 3.5 | 0.00 | 0.07 | 0.00 | 82 | 1003.5 |
| 20260906081543 | 63 | 196 | 0.9 | 5.2 | 0.00 | 0.07 | 0.00 | 82 | 1003.5 |
| 20260906080022 | 63 | 196 | 4.3 | 6.1 | 0.00 | 0.07 | 0.00 | 82 | 1003.5 |
| 20260906074522 | 63 | 173 | 6.1 | 9.6 | 0.00 | 0.07 | 0.00 | 83 | 1003.6 |
| 20260906073035 | 62 | 188 | 7.0 | 7.8 | 0.00 | 0.07 | 0.00 | 83 | 1003.8 |
| 20260906071516 | 64 | 161 | 5.2 | 7.8 | 0.00 | 0.07 | 0.00 | 81 | 1004.0 |
| 20260906070016 | 63 | 143 | 3.5 | 6.1 | 0.00 | 0.07 | 0.00 | 80 | 1004.1 |
| 20260906064513 | 64 | 143 | 5.2 | 7.8 | 0.00 | 0.07 | 0.00 | 79 | 1004.0 |
| 20260906063012 | 64 | 135 | 4.3 | 7.8 | 0.00 | 0.07 | 0.00 | 80 | 1003.9 |
| 20260906061510 | 64 | 128 | 5.2 | 7.8 | 0.00 | 0.07 | 0.00 | 80 | 1003.8 |
| 20260906060007 | 64 | 115 | 4.3 | 7.0 | 0.00 | 0.07 | 0.00 | 80 | 1003.7 |
| 20260906054509 | 65 | 161 | 6.1 | 8.7 | 0.00 | 0.07 | 0.07 | 79 | 1003.7 |
| 20260906053005 | 66 | 167 | 6.1 | 9.6 | 0.00 | 0.07 | 0.07 | 78 | 1003.6 |
| 20260906051505 | 67 | 164 | 7.8 | 8.7 | 0.00 | 0.07 | 0.07 | 77 | 1003.6 |
| 20260906050007 | 67 | 165 | 6.1 | 7.8 | 0.00 | 0.07 | 0.07 | 78 | 1003.5 |
| 20260906044504 | 68 | 171 | 5.2 | 9.6 | 0.00 | 0.07 | 0.07 | 75 | 1003.5 |
| 20260906043004 | 70 | 146 | 4.3 | 7.0 | 0.00 | 0.07 | 0.07 | 74 | 1003.5 |
| 20260906041503 | 70 | 164 | 6.1 | 13.0 | 0.00 | 0.07 | 0.07 | 73 | 1003.3 |
| 20260906040004 | 71 | 160 | 9.6 | 13.0 | 0.00 | 0.07 | 0.07 | 72 | 1003.2 |
| 20260906034503 | 71 | 126 | 7.0 | 10.4 | 0.00 | 0.07 | 0.07 | 73 | 1003.3 |
| 20260906033002 | 71 | 126 | 7.8 | 11.3 | 0.00 | 0.07 | 0.07 | 71 | 1003.1 |
| 20260906031501 | 72 | 116 | 7.8 | 11.3 | 0.00 | 0.07 | 0.07 | 67 | 1002.9 |
| 20260906030002 | 73 | 124 | 7.0 | 9.6 | 0.00 | 0.07 | 0.07 | 67 | 1002.7 |
| 20260906024502 | 74 | 150 | 8.7 | 12.2 | 0.00 | 0.07 | 0.07 | 64 | 1002.5 |
| 20260906023130 | 74 | 165 | 9.6 | 13.0 | 0.00 | 0.07 | 0.07 | 64 | 1002.3 |
| 20260906021600 | 74 | 164 | 8.7 | 13.0 | 0.00 | 0.07 | 0.07 | 62 | 1002.2 |
| 20260906020100 | 75 | 161 | 8.7 | 13.9 | 0.00 | 0.07 | 0.07 | 59 | 1002.2 |
| 20260906014623 | 75 | 162 | 12.2 | 19.1 | 0.00 | 0.07 | 0.07 | 56 | 1002.1 |
| 20260906013100 | 74 | 171 | 13.9 | 19.1 | 0.00 | 0.07 | 0.07 | 56 | 1002.1 |
| 20260906011600 | 75 | 155 | 13.0 | 21.7 | 0.00 | 0.07 | 0.07 | 58 | 1002.1 |
| 20260906010057 | 76 | 160 | 17.4 | 23.5 | 0.00 | 0.07 | 0.07 | 56 | 1002.0 |
| 20260906004612 | 80 | 158 | 15.6 | 26.1 | 0.00 | 0.07 | 0.07 | 51 | 1002.0 |
| 20260906003057 | 81 | 110 | 6.1 | 8.7 | 0.00 | 0.07 | 0.07 | 43 | 1001.5 |
| 20260906001556 | 82 | 103 | 7.8 | 9.6 | 0.00 | 0.07 | 0.07 | 41 | 1001.3 |
| 20260906000106 | 85 | 109 | 8.7 | 10.4 | 0.01 | 0.07 | 0.07 | 35 | 1001.1 |
| 20260905234600 | 86 | 115 | 7.8 | 12.2 | 0.01 | 0.07 | 0.07 | 34 | 1001.1 |
| 20260905233057 | 83 | 117 | 8.7 | 14.8 | 0.01 | 0.07 | 0.07 | 37 | 1001.0 |
| 20260905231555 | 84 | 83 | 9.6 | 14.8 | 0.01 | 0.07 | 0.07 | 39 | 1001.0 |
| 20260905230053 | 81 | 89 | 12.2 | 18.2 | 0.00 | 0.06 | 0.06 | 41 | 1001.0 |
| 20260905224604 | 80 | 98 | 13.9 | 20.9 | 0.00 | 0.06 | 0.06 | 45 | 1001.0 |
| 20260905223052 | 79 | 57 | 8.7 | 13.0 | 0.00 | 0.06 | 0.06 | 51 | 1000.9 |
| 20260905221553 | 79 | 47 | 9.6 | 19.1 | 0.06 | 0.06 | 0.06 | 52 | 1000.8 |
| 20260905220053 | 78 | 40 | 10.4 | 28.7 | 0.06 | 0.06 | 0.06 | 54 | 1000.6 |
| 20260905214551 | 77 | 19 | 17.4 | 22.6 | 0.06 | 0.06 | 0.06 | 50 | 1000.3 |
| 20260905213048 | 85 | 306 | 4.3 | 8.7 | 0.06 | 0.06 | 0.06 | 41 | 1000.7 |
| 20260905211547 | 86 | 158 | 7.0 | 12.2 | 0.00 | 0.00 | 0.00 | 34 | 1000.8 |